Погода в Баглунге

Непал     28°16′03″N   83°35′58″E
темп.,
°C
ветер,
м/с
пор.,
м/с
влажн.,
%
обл.,
%
осадки,
мм/ч
давл.,
гПа
погр.,
м
17 апреля, сб
сб1723:45+13ссз34417 0.0 101550
02:45+12ссз333752 0.0 101548
05:45+12ссз333441 0.0 101649
08:45+23ю121912 0.0 10142024
11:45+26ю441689 0.0 10123569
14:45+23з452264 0.2 10112964
17:45+22юв122523 0.2 10091562
20:45+15ссз32401 0.0 101531
18 апреля, вс
вс1823:45+14ссз33415 0.0 101540
02:45+13ссз334140 0.0 101341
05:45+12ссз32390 0.0 101437
08:45+22ююв22250 0.2 10131315
11:45+26ю451953 0.2 10104091
14:45+23зсз262097 0.1 10082903
17:45+23ююз36161 0.1 10061870
20:45+13ссз22350 0.0 101118
19 апреля, пн
пн1923:45+12ссз33350 0.0 101239
02:45+12ссз333354 0.0 101141
05:45+11ссз33310 0.0 101143
08:45+23ю11180 0.0 10101727
11:45+27ю361228 0.0 10074089
14:45+28ююз5572 0.0 10044469
17:45+24зюз46120 0.0 10051127
20:45+15ссз33200 0.0 101037
20 апреля, вт
вт2023:45+14ссз33230 0.0 101143
02:45+13ссз33240 0.0 101043
05:45+12ссз33240 0.0 101143
08:45+25ююв11120 0.0 10091643
11:45+29ю3584 0.0 10074224
14:45+30ююз54997 0.0 10044535
17:45+26юз461499 0.0 10051206
20:45+18сз322397 0.0 101122
21 апреля, ср
ср2123:45+17ссз3226100 0.0 101236
02:45+18ссз3324100 0.0 101038
05:45+18ссз2224100 0.0 101129
08:45+23всв112095 0.1 1012746
11:45+21ссз663195 0.2 10141489
14:45+25ссз672585 0.1 10112595
17:45+24ююз142359 0.1 10091570
20:45+18ссз2233100 0.0 101325